Location: Newark
(35.8833°N, 14.5000°E)
Time: 23:24:54
(UTC+00:00)

NOAA 15 - Pass Details

Date: 25 May 2019
Orbit: 798 x 812 km, 98.7° (Epoch: 19 June)

Event Time Altitude Azimuth Distance (km) Brightness Sun altitude
Rises 18:30:08 0° 201° (SSW) 3,296 7.7 -4.8°
Reaches altitude 10° 18:33:00 10° 217° (SW) 2,373 7.1 -5.3°
Maximum altitude 18:36:55 21° 265° (W) 1,728 7.2 -5.9°
Drops below altitude 10° 18:40:53 10° 314° (NW) 2,392 8.7 -6.6°
Sets 18:43:47 0° 330° (NNW) 3,330 9.1 -7.1°
